User: anonymous   Login
Location: Unspecified
(0.0000°N, 0.0000°E)
Time: 14:52:31
(UTC+00:00)
Language:

AO-Echo - Orbit

View from above orbital plane
View from above orbital plane
View from above satellite
View from above satellite

Ground track
Ground track

The orbit data is extracted from the following two-line orbital elements,

1 28375U 04025K   17351.84632005 +.00000033 +00000-0 +22704-4 0  9996
2 28375 098.3730 281.5905 0083732 089.7075 271.3709 14.41867987708229
Epoch (UTC): 17 December 2017 20:18:42
Eccentricity: 0.0083732
inclination: 98.3730°
perigee height: 692 km
apogee height: 812 km
right ascension of ascending node: 281.5905°
argument of perigee: 89.7075°
revolutions per day: 14.41867987
mean anomaly at epoch: 271.3709°
orbit number at epoch: 70822

The dashed part of the orbit path shows where the satellite is in the earth's shadow,  

DLR